Temp
78 73 69 74 76 77 74 73 72 76 79 77 76 78 81 85 84 84 86 87 86 87 92 91 87 87 85 83 81 80 80 78 80 82 83 83 84 84 84 83 80 78 78 78
71 68 77 76 74 71 71 70 71 76 77 74 76 75 81 83 83 85 85 86 86 87 88 88 86 85 83 81 79 79 79 78 79 82 82 83 82 84 81 81 76 75 75 74
70 73 75 72 70 68 70 68 70 69 73 75 73 71 75 82 84 85 86 87 88 87 87 86 85 83 83 80 78 79 79 78 79 80 79 77 78 77 80 81 80 79 74 74
71 77 71 70 69 71 66 73 73 71 67 64 74 63 75 79 80 82 84 86 88 89 89 89 84 82 82 82 82 81 79 78 78 76 77 73 76 75 78 77 79 74 74 73
68 69 69 67 70 73 68 73 72 71 68 68 67 63 73 80 74 79 83 86 88 89 90 90 88 85 85 84 83 82 78 77 78 75 75 75 73 78 78 77 73 72 74 74
72 76 74 73 72 72 72 69 68 69 68 56 65 66 69 75 74 79 83 83 83 85 87 88 90 88 85 86 85 82 77 75 76 74 73 71 70 71 72 73 71 75 76 76
69 70 74 74 69 71 69 65 54 53 55 53 66 65 68 75 76 78 79 81 83 84 86 87 87 88 84 83 84 82 78 74 75 74 73 72 71 69 68 69 73 69 73 74
60 58 70 73 70 68 67 66 56 44 51 59 63 56 68 77 80 80 79 81 80 81 84 85 86 87 86 83 82 81 78 76 76 74 74 73 71 73 73 73 71 71 71 71
59 59 72 72 75 74 67 62 70 59 63 56 63 66 73 75 75 75 78 78 78 78 78 80 83 84 83 82 80 81 79 77 77 75 74 72 71 69 69 68 68 71 69 71
62 52 68 70 73 72 68 73 56 59 46 46 58 61 63 69 73 76 76 77 78 78 78 79 82 81 83 83 82 80 80 78 77 75 74 73 72 70 69 68 67 66 66 67
60 56 61 66 63 63 62 62 63 62 60 51 50 60 74 72 75 75 77 78 79 78 80 80 82 82 85 86 85 79 79 78 76 74 73 71 71 70 69 67 67 67 66 66
59 55 51 60 68 67 65 64 64 50 51 57 57 58 78 75 77 77 77 78 80 81 83 84 84 84 84 83 83 81 77 78 78 76 73 71 70 69 67 66 66 67 65 66
55 52 45 51 59 64 60 64 63 62 60 53 50 57 77 77 75 77 76 78 79 79 82 84 84 83 82 82 81 80 78 77 78 76 74 71 69 68 67 66 65 66 65 65
52 51 49 44 53 58 55 57 60 56 49 53 58 61 69 73 73 75 76 78 79 79 80 82 82 83 83 82 81 79 78 78 76 74 71 69 68 67 67 66 65 65 65 64
51 43 49 52 54 54 53 53 55 53 55 50 58 61 67 72 73 74 76 78 78 78 79 80 80 82 83 80 78 78 78 76 74 71 69 68 67 67 66 65 66 65 64 63
51 42 47 44 51 52 48 53 54 55 56 56 57 57 69 72 73 72 73 74 75 77 79 80 80 80 80 79 76 74 74 73 71 68 68 69 67 66 65 64 63 63 61 59
43 41 40 37 47 45 37 47 52 53 56 56 51 60 68 67 69 71 72 74 73 76 78 80 80 80 78 77 75 73 72 71 67 67 68 67 66 65 64 63 60 57 54 54
41 40 40 34 39 24 46 57 56 52 55 58 59 61 64 66 69 72 74 73 74 76 78 78 81 79 78 76 74 72 70 66 66 66 66 66 65 63 62 59 55 54 54 52
48 42 33 28 30 39 44 50 50 49 48 58 57 60 64 67 68 66 71 73 73 74 76 78 80 78 75 73 70 67 65 65 65 65 65 64 62 60 57 55 53 53 52 53
48 45 34 33 25 23 41 52 58 56 38 56 58 58 60 62 53 60 70 71 71 74 76 75 74 74 70 68 66 65 64 64 63 64 62 61 60 55 53 53 51 52 52 52
37 35 27 29 26 36 50 54 57 33 41 58 59 59 59 56 60 64 67 66 69 71 73 74 71 69 67 65 63 63 63 62 62 61 60 59 55 52 52 51 52 51 50 50
33 31 31 33 27 24 53 53 43 51 55 56 59 60 59 60 61 62 64 66 69 70 70 68 66 66 64 63 62 61 60 61 60 60 58 56 52 51 51 50 50 48 49 48
28 37 33 35 35 50 55 53 55 51 48 55 56 58 60 59 60 62 63 64 68 69 67 67 66 62 62 61 61 60 60 58 58 57 51 50 50 51 51 49 47 48 49 49
43 47 36 36 45 49 52 55 56 57 54 57 60 60 61 58 58 60 62 65 66 66 65 66 64 62 59 60 59 59 58 57 54 50 49 51 50 49 49 50 51 49 48 47
44 45 40 40 46 49 52 53 55 56 58 59 60 60 60 59 57 56 59 62 61 65 65 65 63 61 59 58 58 58 56 55 52 50 49 50 52 49 49 51 49 49 50 47
46 43 39 36 48 49 49 54 57 56 56 58 57 58 60 60 57 56 57 59 61 64 63 62 61 59 58 57 56 55 54 52 49 48 48 51 48 49 51 48 49 47 43 42
MSLP
1006.67 1006.10 1005.13 1004.80 1004.85 1004.45 1004.34 1003.83 1003.52 1003.79 1004.22 1004.64 1004.17 1003.87 1004.00 1004.40 1004.89 1005.00 1005.15 1005.58 1006.42 1006.98 1007.55 1008.97 1010.40 1011.26 1012.09 1012.87 1013.59 1014.09 1014.66 1015.25 1015.47 1015.35 1015.00 1015.08 1015.09 1015.45 1015.64 1015.84 1016.21 1016.37 1016.45 1016.30
1006.34 1005.31 1004.76 1005.11 1005.44 1005.38 1005.12 1004.39 1003.92 1004.00 1004.77 1005.07 1004.02 1003.68 1003.68 1003.73 1003.93 1004.45 1004.72 1005.03 1005.75 1006.53 1007.28 1008.25 1009.62 1010.66 1011.54 1012.47 1013.29 1013.90 1014.41 1014.98 1015.23 1015.20 1015.24 1015.32 1015.51 1015.53 1015.78 1015.91 1016.43 1016.57 1016.57 1016.47
1005.04 1004.62 1005.23 1005.58 1005.67 1005.46 1004.97 1004.40 1004.19 1004.46 1004.74 1005.01 1004.52 1003.41 1003.03 1003.12 1003.48 1003.88 1004.18 1004.60 1005.14 1005.68 1006.35 1007.34 1008.64 1009.73 1010.85 1011.76 1012.66 1013.36 1014.01 1014.57 1014.86 1015.15 1015.58 1015.85 1015.93 1015.85 1015.38 1015.32 1015.56 1015.92 1016.43 1016.37
1005.12 1004.74 1005.53 1005.45 1005.13 1005.29 1004.38 1004.93 1004.70 1004.60 1004.80 1003.61 1003.89 1001.66 1000.82 1001.60 1002.17 1002.86 1003.24 1003.53 1003.98 1004.46 1005.32 1006.20 1007.79 1009.03 1009.92 1010.85 1012.04 1012.77 1013.57 1014.26 1014.65 1015.24 1015.28 1015.62 1015.40 1015.20 1015.20 1015.63 1015.56 1016.07 1015.92 1016.03
1004.53 1004.89 1005.14 1004.89 1004.73 1005.07 1004.72 1004.99 1004.87 1004.66 1004.30 1003.80 1003.41 1002.90 1000.74 1000.76 1001.68 1001.86 1002.31 1002.71 1003.07 1003.60 1004.39 1005.10 1006.17 1007.88 1009.20 1010.31 1011.07 1012.04 1013.11 1013.93 1014.28 1014.97 1015.15 1015.40 1015.46 1015.13 1015.28 1015.59 1015.75 1015.63 1015.24 1015.25
1004.69 1005.14 1005.01 1004.56 1005.03 1005.43 1005.39 1005.42 1005.33 1005.05 1004.37 1003.47 1002.85 1002.33 1000.34 1000.11 1000.92 1001.44 1001.92 1002.77 1003.47 1003.85 1004.49 1004.88 1005.58 1006.95 1008.36 1009.54 1010.43 1011.56 1012.68 1013.46 1014.19 1014.73 1015.18 1015.56 1015.64 1015.64 1015.60 1015.52 1015.53 1014.73 1014.63 1014.51
1004.58 1004.41 1004.83 1005.16 1004.95 1005.31 1005.51 1004.90 1004.44 1004.22 1003.46 1002.21 1002.46 1001.73 1000.97 1000.91 1001.72 1002.02 1002.40 1002.86 1003.38 1003.86 1004.16 1004.45 1004.89 1005.61 1007.26 1008.51 1009.53 1010.83 1011.98 1012.88 1013.66 1014.23 1014.69 1015.11 1015.45 1015.72 1015.71 1015.42 1014.84 1014.84 1014.34 1014.08
1003.94 1003.43 1003.72 1004.44 1004.32 1003.85 1004.43 1004.18 1003.67 1003.34 1002.29 1001.92 1002.98 1001.68 1001.03 1001.30 1001.82 1002.48 1003.02 1003.26 1003.76 1003.99 1004.05 1004.16 1004.42 1005.23 1006.56 1008.17 1009.17 1010.43 1011.27 1012.19 1012.91 1013.54 1014.05 1014.64 1015.12 1015.13 1015.00 1014.72 1014.89 1014.73 1014.39 1014.15
1004.80 1003.99 1003.93 1003.97 1003.91 1003.89 1003.71 1003.87 1004.12 1003.76 1003.20 1002.88 1001.61 1001.46 1001.59 1001.95 1002.29 1002.82 1002.84 1003.20 1003.49 1003.93 1004.34 1004.52 1004.72 1005.53 1006.62 1007.80 1009.14 1010.01 1010.61 1011.61 1012.18 1012.87 1013.60 1014.21 1014.66 1014.89 1014.74 1014.82 1014.72 1014.33 1014.21 1013.91
1006.49 1005.74 1004.43 1004.24 1004.55 1004.42 1004.22 1003.98 1004.59 1004.56 1003.57 1002.44 1001.36 1000.66 1000.48 1000.93 1001.44 1002.11 1002.55 1002.93 1003.45 1004.05 1004.47 1004.73 1005.07 1005.89 1006.53 1007.60 1008.71 1009.63 1010.21 1010.83 1011.57 1012.43 1013.07 1013.52 1013.89 1014.20 1014.26 1014.24 1014.11 1014.02 1013.85 1013.76
1008.44 1007.40 1005.22 1004.97 1004.43 1003.89 1004.58 1004.34 1004.39 1004.10 1003.72 1002.53 1001.39 1000.10 999.93 1000.84 1001.09 1001.72 1002.26 1002.86 1003.34 1003.87 1004.19 1004.71 1005.21 1005.94 1006.45 1007.09 1007.98 1009.12 1009.82 1010.41 1011.14 1012.01 1012.61 1013.12 1013.41 1013.60 1013.71 1013.67 1013.51 1013.28 1013.18 1013.14
1009.74 1008.59 1006.47 1004.78 1004.71 1004.95 1004.77 1003.98 1004.00 1004.25 1003.91 1003.44 1002.53 1000.55 1000.52 1001.17 1001.47 1001.98 1002.36 1002.98 1003.39 1003.73 1004.07 1004.50 1004.89 1005.51 1006.15 1007.00 1007.75 1008.54 1009.51 1010.00 1010.55 1011.24 1011.96 1012.46 1012.77 1012.99 1013.05 1013.00 1012.85 1012.70 1012.47 1012.33
1011.22 1009.32 1007.72 1006.36 1006.03 1005.49 1005.15 1004.85 1004.91 1004.67 1004.26 1003.36 1002.05 1000.30 1000.97 1000.84 1001.72 1002.16 1002.61 1002.90 1003.47 1003.84 1003.97 1004.16 1004.58 1005.09 1005.97 1006.67 1007.47 1008.15 1009.02 1009.58 1010.05 1010.58 1011.22 1011.62 1011.95 1012.15 1012.20 1012.27 1012.20 1012.05 1011.83 1011.58
1013.20 1010.68 1008.82 1007.07 1006.08 1006.23 1005.47 1005.79 1005.96 1006.03 1004.96 1003.16 1002.29 1000.68 1000.73 1000.89 1001.41 1002.22 1002.66 1002.96 1003.23 1003.57 1003.78 1003.95 1004.30 1004.71 1005.42 1006.22 1006.96 1007.70 1008.43 1009.10 1009.73 1010.41 1010.88 1011.15 1011.39 1011.54 1011.58 1011.55 1011.47 1011.36 1011.16 1010.89
1013.67 1011.63 1010.56 1009.09 1008.66 1008.20 1007.83 1007.52 1007.10 1006.42 1005.38 1004.53 1002.57 1001.41 1000.55 1001.01 1001.39 1001.87 1002.48 1002.67 1002.84 1003.00 1003.37 1003.66 1004.03 1004.26 1004.85 1005.76 1006.75 1007.47 1008.02 1008.73 1009.55 1010.18 1010.46 1010.65 1010.90 1011.03 1011.01 1010.91 1010.76 1010.67 1010.51 1010.32
1013.84 1011.92 1011.93 1010.08 1009.94 1009.38 1008.39 1007.85 1006.93 1006.55 1006.03 1005.40 1003.92 1003.02 1001.19 1002.74 1002.92 1003.07 1003.09 1003.17 1002.71 1002.57 1002.73 1003.22 1003.61 1004.04 1004.57 1005.30 1006.34 1007.16 1007.86 1008.62 1009.53 1010.01 1010.09 1010.26 1010.42 1010.48 1010.44 1010.36 1010.27 1010.11 1009.96 1009.95
1014.78 1013.80 1012.78 1010.19 1010.47 1009.79 1009.00 1006.74 1006.94 1006.74 1006.04 1005.66 1004.19 1002.94 1002.49 1002.39 1002.79 1002.77 1002.73 1002.69 1002.76 1002.59 1002.52 1002.65 1002.99 1003.41 1004.25 1005.26 1006.13 1006.93 1007.86 1008.74 1009.46 1009.64 1009.75 1009.87 1009.94 1009.94 1009.96 1009.98 1010.02 1010.03 1009.93 1009.67
1015.03 1014.59 1013.99 1011.94 1011.71 1009.82 1007.54 1008.01 1007.62 1006.79 1006.01 1005.79 1004.97 1003.52 1002.93 1003.29 1003.44 1003.35 1003.14 1003.00 1002.53 1002.47 1002.22 1002.55 1002.65 1003.13 1003.96 1005.18 1006.22 1007.24 1008.11 1008.94 1009.22 1009.38 1009.49 1009.62 1009.61 1009.68 1009.74 1009.72 1009.71 1009.59 1009.35 1008.83
1014.05 1014.24 1013.69 1012.99 1011.71 1010.32 1008.76 1007.97 1007.79 1007.08 1005.86 1006.02 1005.19 1004.28 1003.61 1003.65 1003.34 1002.72 1003.69 1003.31 1002.76 1002.55 1002.38 1002.39 1002.67 1003.27 1004.21 1005.22 1006.40 1007.57 1008.32 1008.68 1009.02 1009.05 1009.18 1009.42 1009.55 1009.51 1009.62 1009.53 1009.28 1009.01 1008.61 1007.91
1012.32 1012.80 1013.39 1012.72 1011.18 1009.54 1008.26 1008.09 1007.90 1007.52 1005.65 1006.15 1005.75 1004.60 1004.04 1004.37 1003.56 1002.15 1003.52 1003.19 1002.95 1002.52 1002.37 1002.59 1003.26 1003.77 1004.52 1005.62 1006.98 1007.61 1007.91 1008.39 1008.70 1008.85 1009.14 1009.47 1009.52 1009.58 1009.51 1009.23 1008.85 1008.39 1007.91 1007.04
1011.95 1012.02 1012.13 1011.80 1011.12 1009.27 1008.33 1007.72 1007.68 1007.17 1005.78 1005.38 1005.13 1004.93 1004.71 1004.49 1004.03 1003.82 1004.04 1004.10 1003.70 1003.05 1002.65 1002.80 1003.65 1004.09 1004.91 1006.28 1007.26 1007.52 1008.01 1008.32 1008.77 1009.26 1009.22 1009.37 1009.61 1009.44 1009.24 1008.84 1008.27 1007.73 1007.16 1006.42
1012.05 1011.91 1011.26 1011.09 1010.26 1008.80 1008.24 1007.50 1007.15 1006.71 1006.41 1005.93 1005.22 1004.98 1004.74 1004.74 1004.64 1004.68 1004.56 1003.73 1002.93 1002.36 1002.64 1003.52 1004.10 1004.77 1005.96 1006.76 1007.26 1007.70 1008.18 1008.63 1008.99 1009.14 1009.15 1009.24 1009.46 1009.34 1008.84 1008.40 1007.88 1007.41 1006.65 1005.61
1011.83 1011.70 1011.34 1010.84 1009.32 1007.96 1007.10 1006.86 1006.91 1007.42 1007.85 1006.35 1006.10 1005.76 1005.34 1005.14 1004.70 1004.54 1004.15 1003.64 1002.51 1002.17 1003.21 1003.98 1004.40 1005.48 1006.44 1007.14 1007.61 1008.07 1008.40 1008.89 1009.04 1009.10 1009.53 1009.55 1009.28 1008.72 1008.47 1008.13 1007.57 1006.79 1005.94 1004.84
1010.22 1010.31 1010.41 1010.34 1008.35 1007.87 1007.30 1007.01 1006.94 1006.74 1006.70 1006.38 1005.64 1005.35 1005.10 1004.95 1004.89 1004.55 1004.05 1002.83 1002.29 1002.42 1003.43 1004.24 1004.77 1005.61 1006.53 1007.29 1007.94 1008.42 1008.80 1008.94 1009.22 1009.60 1009.49 1009.12 1008.69 1008.47 1008.23 1007.81 1007.11 1006.27 1005.31 1004.47
1009.54 1009.12 1008.77 1008.18 1007.80 1007.24 1006.73 1006.68 1006.58 1006.28 1005.74 1005.42 1005.31 1004.91 1004.66 1004.76 1004.87 1004.73 1003.90 1002.76 1002.93 1003.01 1003.86 1004.36 1004.83 1005.72 1006.74 1007.59 1008.09 1008.57 1008.81 1009.10 1009.37 1009.61 1009.24 1008.83 1008.35 1008.23 1007.92 1007.32 1006.82 1005.90 1005.10 1004.66
1008.22 1007.62 1007.24 1006.66 1006.49 1005.99 1005.72 1006.02 1005.81 1005.40 1005.11 1004.99 1004.88 1004.40 1004.47 1004.45 1004.63 1004.94 1003.86 1003.19 1003.29 1003.38 1004.19 1004.75 1005.55 1006.31 1007.17 1007.84 1008.30 1008.75 1009.03 1009.46 1009.69 1009.50 1009.01 1008.61 1008.60 1008.23 1007.51 1006.95 1005.96 1005.25 1004.90 1004.18
Wind_Speed
9 12 13 17 18 18 10 14 17 14 5 14 19 18 17 17 14 15 18 18 19 20 19 18 17 17 16 15 14 14 12 10 7 6 5 3 3 1 2 2 3 4 6 7
8 14 12 3 6 12 14 15 16 9 9 11 14 18 16 16 14 17 18 18 20 20 19 19 19 19 18 17 16 15 13 12 9 5 2 2 1 1 4 3 3 5 6 7
15 4 4 11 12 13 14 16 14 12 10 14 12 19 19 17 16 15 17 20 21 22 22 21 22 22 20 19 18 16 15 12 9 5 4 3 3 5 5 1 3 3 7 7
10 5 9 11 12 14 15 14 13 13 10 13 14 9 14 15 19 19 19 19 20 22 23 23 22 22 22 20 18 17 15 13 10 8 5 3 5 5 5 5 5 7 6 7
3 8 13 15 13 10 10 3 13 14 13 14 13 10 13 12 15 16 16 18 19 19 18 21 24 22 20 20 19 17 15 13 10 9 6 5 5 4 4 5 7 8 6 7
16 2 7 9 3 6 2 8 8 9 12 14 18 14 11 13 16 12 6 5 7 9 15 17 19 21 21 20 19 17 16 13 11 10 9 7 5 6 7 7 8 7 7 7
18 19 14 10 13 7 12 12 7 10 12 14 3 11 15 4 3 4 7 5 5 8 12 15 19 22 22 22 21 18 17 15 13 12 10 8 7 7 9 8 7 9 8 8
11 14 16 13 19 12 17 15 7 11 12 11 8 10 8 4 6 5 5 7 7 9 9 12 16 17 20 21 21 18 16 15 14 12 10 7 7 7 7 8 8 9 9 9
11 18 8 6 10 13 11 14 14 17 13 10 8 10 7 10 10 8 8 5 5 4 5 7 10 14 17 19 19 17 15 14 13 12 9 8 8 9 8 10 9 9 9 9
2 9 10 8 9 9 12 6 9 9 14 19 14 15 7 6 10 9 7 4 1 1 3 7 10 14 15 18 17 14 14 14 13 12 9 8 8 8 9 9 11 12 12 12
3 7 11 9 15 18 10 14 11 8 14 13 14 11 8 7 8 9 8 4 4 5 6 9 11 14 16 15 14 13 13 13 11 10 9 9 9 9 10 10 11 12 12 12
5 7 12 19 6 1 9 13 20 12 18 13 16 18 5 5 5 8 7 5 7 7 9 11 13 14 13 13 12 13 11 12 11 10 8 9 9 10 11 11 13 13 13 12
7 8 10 17 17 16 12 13 10 12 10 19 17 18 12 6 8 7 10 8 10 11 12 12 13 14 14 13 13 13 12 12 11 9 9 9 10 11 12 13 13 13 14 14
9 12 16 16 16 8 10 8 11 7 12 20 19 27 22 15 12 10 8 9 12 13 14 14 13 14 14 14 14 13 12 11 10 9 10 10 11 12 12 13 14 14 14 15
8 17 18 20 19 20 19 20 20 20 21 19 21 24 22 15 11 9 10 12 13 14 17 16 16 16 14 13 12 12 13 11 9 9 10 10 11 12 13 14 14 14 15 15
14 21 20 28 25 23 26 25 26 26 24 23 27 25 29 20 17 18 17 16 18 16 16 15 16 17 16 14 13 13 12 10 8 9 10 10 11 12 13 13 14 15 15 15
15 11 14 26 19 18 17 33 25 24 28 23 27 28 25 25 20 19 18 16 19 17 16 16 16 16 14 13 13 13 10 8 8 9 9 11 12 12 13 13 14 15 15 15
21 21 17 21 16 18 20 13 15 19 23 23 26 31 30 26 24 24 25 24 21 21 19 16 15 13 11 11 11 10 8 8 7 8 10 11 12 13 13 14 14 15 14 15
22 21 17 19 19 21 24 21 17 18 22 20 25 27 27 24 21 22 17 19 19 21 19 17 13 9 10 12 11 10 8 7 7 8 10 10 12 13 14 14 15 15 15 15
18 22 17 16 15 22 22 23 23 24 25 27 23 24 22 18 15 17 13 13 18 19 18 14 10 10 12 12 11 9 7 6 7 8 9 11 12 12 14 15 15 14 14 17
14 7 17 17 20 17 16 20 18 17 13 5 10 19 20 18 17 20 15 17 19 18 18 11 12 11 12 12 10 7 4 6 6 8 9 10 11 12 13 13 14 14 13 15
18 15 14 14 16 19 18 21 25 16 11 15 16 15 16 16 17 17 18 19 18 17 10 12 12 11 11 9 7 5 3 4 6 8 10 10 11 10 11 14 14 15 15 16
8 12 13 15 11 14 16 9 10 7 15 15 14 17 15 17 18 18 17 18 15 10 10 12 12 12 9 7 4 2 3 5 7 8 9 10 11 10 11 13 14 12 13 13
19 18 14 14 17 21 23 18 15 17 13 21 14 16 15 17 17 18 19 15 11 10 13 12 12 11 9 7 5 2 4 6 7 8 9 9 10 10 10 9 10 11 11 12
14 17 18 21 22 22 21 18 20 17 15 16 18 18 16 17 15 16 17 15 8 10 11 11 10 9 8 6 5 3 6 6 6 7 8 8 8 9 10 9 10 11 12 11
15 21 17 15 18 17 19 18 22 19 18 17 19 19 18 18 12 15 12 10 12 11 11 10 9 9 8 6 5 5 6 6 6 7 6 7 8 8 9 9 11 10 14 19
Wind_Direction
196 228 217 217 221 244 295 220 223 215 134 223 229 240 235 228 217 232 229 218 210 212 213 193 195 192 187 185 184 183 181 177 189 189 187 173 202 159 260 295 329 326 334 325
213 236 248 210 217 220 230 228 227 209 201 231 234 237 236 232 231 227 226 216 212 215 216 203 197 196 194 188 188 185 187 183 198 193 204 301 316 304 336 321 331 320 317 315
244 53 277 198 198 216 222 229 221 236 189 228 260 253 240 228 224 222 219 217 215 218 215 208 203 203 194 193 190 188 189 185 194 194 179 195 226 220 227 211 294 350 306 306
246 209 192 202 229 219 236 209 232 222 224 238 196 268 208 213 220 223 222 220 223 219 222 215 205 206 201 197 191 189 188 188 184 186 200 241 305 311 2 292 323 304 302 309
211 195 209 220 223 201 258 182 230 228 236 259 205 253 260 202 214 223 220 231 231 230 232 227 205 208 205 198 191 191 184 187 186 187 223 216 245 294 304 299 304 304 285 296
263 98 241 237 135 236 129 191 204 227 241 235 238 225 249 213 206 233 217 202 232 246 240 231 223 204 204 198 195 187 185 187 189 194 199 219 254 282 294 303 300 301 314 308
229 224 224 238 234 182 207 196 214 213 206 238 163 233 238 51 159 200 188 243 250 253 242 224 221 207 198 196 194 185 186 190 193 198 205 215 241 265 272 282 301 313 301 304
230 215 206 201 227 219 203 214 207 226 233 236 151 232 239 228 219 216 235 277 281 259 255 240 221 210 194 198 191 188 182 195 196 203 211 220 238 258 279 278 306 295 301 296
234 240 153 206 220 237 199 230 261 272 278 279 220 206 207 199 209 228 251 250 269 271 253 225 201 190 189 187 189 192 186 198 200 206 214 225 240 253 281 286 286 284 290 283
242 257 206 185 223 223 261 245 201 224 239 241 239 244 238 171 209 198 200 198 236 245 201 187 181 183 180 183 183 190 195 199 203 212 219 235 246 259 273 281 284 285 282 278
304 231 226 210 216 234 193 218 230 265 238 255 255 248 186 218 241 183 191 174 173 186 176 167 170 176 186 178 187 192 202 208 208 216 230 243 258 271 280 282 283 282 280 275
55 291 246 240 186 247 285 262 223 219 236 232 263 255 206 186 221 191 196 205 193 195 179 173 175 177 186 194 203 197 210 219 219 226 236 250 266 276 281 283 284 282 277 276
2 234 255 241 241 246 241 234 246 275 249 251 242 249 246 220 237 242 257 203 203 204 199 193 193 194 201 207 211 215 209 222 230 232 243 256 271 281 284 283 283 281 280 279
299 257 246 248 259 334 243 232 225 246 244 236 239 255 249 222 205 235 235 237 218 210 213 217 213 215 215 217 219 219 223 224 227 234 246 264 277 286 288 288 284 282 282 281
266 264 268 265 267 276 268 266 260 249 248 253 254 260 259 269 304 320 307 268 259 234 224 224 229 233 228 223 223 224 225 223 224 240 257 273 283 286 287 285 285 286 283 281
267 269 269 266 261 257 259 260 256 250 254 258 260 262 262 274 281 279 273 270 267 261 240 240 248 242 236 231 219 217 220 222 222 245 265 280 286 286 286 289 289 288 290 290
275 285 272 261 261 255 250 242 252 260 259 253 256 259 274 267 265 266 272 264 269 266 263 259 259 251 235 229 219 218 213 207 228 254 275 283 289 287 290 297 296 291 287 285
256 256 258 263 274 248 246 256 270 266 263 258 259 260 268 276 281 274 268 268 272 260 261 264 268 251 224 215 205 208 198 210 242 268 282 288 292 296 295 298 294 292 288 284
231 242 251 252 250 258 256 252 253 259 265 255 257 266 268 275 287 275 269 275 276 272 274 270 269 239 205 192 180 192 194 223 256 275 288 299 300 299 302 295 295 295 287 286
233 226 231 245 243 246 258 258 255 257 260 254 270 266 268 275 265 270 296 323 311 296 252 265 241 198 177 173 169 189 203 245 274 290 307 301 302 305 296 299 295 292 286 286
268 240 227 233 242 255 268 279 288 270 261 264 263 258 267 264 267 286 301 293 285 280 277 240 210 182 164 156 171 184 212 261 312 305 301 307 304 299 300 298 295 295 294 291
265 269 266 258 256 263 256 257 253 261 297 297 274 277 278 277 278 284 283 281 287 275 239 194 179 156 150 152 163 169 245 332 312 308 304 314 316 307 303 303 306 299 296 293
255 249 270 268 269 271 277 267 302 294 291 291 295 287 282 283 281 282 289 285 292 248 180 183 162 148 145 141 133 196 11 333 319 323 324 309 308 312 314 307 305 301 298 296
254 245 246 266 254 256 262 285 294 289 262 271 291 270 272 283 293 294 286 284 294 184 181 177 155 153 144 138 122 67 356 346 336 318 314 320 319 321 313 309 301 304 305 306
259 265 254 253 260 263 271 275 279 274 286 289 283 268 279 284 290 297 287 296 235 186 179 168 158 148 135 133 112 58 19 354 328 320 324 322 322 328 314 318 309 304 303 304
244 249 248 252 254 266 274 270 273 280 271 281 290 286 282 277 298 285 280 251 204 178 170 150 143 138 134 124 93 35 16 340 328 323 332 337 331 323 320 324 316 305 288 292